Weather in Zabuzhje

Ukraine / Volyn Oblast     51°21′32″N   23°41′35″E
temp.,
°C
wind,
m/s
gust,
m/s
humid.,
%
clouds,
%
prec.,
mm/h
press.,
hPa
HPBL,
m
2 july, sat
sat200:00+22ese411705 0.0 1015231
03:00+20ese410763 0.0 1016194
06:00+19se397411 0.0 1017200
09:00+25se45530 0.0 1017533
12:00+29sse33455 0.0 10181339
15:00+30wsw3350100 0.2 10171519
18:00+23wnw788076 3.0 1019786
21:00+19nw599567 6.6 1020491
3 july, sun
sun300:00+18nw4794100 0.0 1021603
03:00+17wnw4795100 0.1 1021393
06:00+16wnw369455 0.0 1021286
09:00+18nw457763 0.0 1021613
12:00+23nw455621 0.0 10201313
15:00+25nnw65517 0.0 10191631
18:00+24n44593 0.0 10181220
21:00+21n337616 0.1 101850
4 july, mon
mon400:00+19w118298 0.0 101811
03:00+18w228489 0.0 101825
06:00+17sw338862 0.0 101876
09:00+22w236742 0.0 1018443
12:00+27nw2346100 0.0 10171631
15:00+29nw233719 0.0 10162044
18:00+30nw233513 0.0 10152342
21:00+24ene33585 0.0 101639
5 july, tue
tue500:00+19ene22725 0.0 101712
03:00+18ese228017 0.0 101711
06:00+18se11785 0.0 101711
09:00+24nne11555 0.0 1017361
12:00+29ene3339100 0.0 10161487
15:00+32e123392 0.0 10152557
18:00+23nnw8106875 0.6 1017747
21:00+18n4995100 3.6 1017348
6 july, wed
wed600:00+17nnw3698100 1.2 1018205
03:00+16nnw3698100 1.3 1018179
06:00+16nw3798100 0.0 1018280
09:00+17nnw3591100 0.0 1019338
12:00+17n2389100 0.4 1019206
15:00+22wnw2354100 0.5 10191229
18:00+24w2349100 0.3 10181412
21:00+19n347421 0.4 101861